Simultaneous Nadir Overpasses (SNOs) Predictions

Prediction of SNOs between GOES-16 and AQUA Satellite Orbit:

Table of predicted SNOs for the next 14.0 days since TLE Epoch: 7/9/2022
Index Date Time (GOES-16) GOES-16 Lat,Lon AQUA Lat,Lon Distance(km) Time Diff (sec)
1 07/09/2022 06:46:07 0.03, -75.20 0.28, -76.39 134.43 80
2 07/11/2022 06:30:52 0.01, -75.21 -0.41, -73.33 214.09 80
3 07/11/2022 18:52:10 -0.01, -75.21 -0.69, -78.49 373.07 80
4 07/13/2022 18:39:34 0.01, -75.22 -0.04, -75.43 24.36 80
5 07/15/2022 18:29:38 0.02, -75.23 0.62, -72.36 325.58 80
6 07/16/2022 06:50:47 -0.02, -75.24 0.46, -77.49 256.69 80
7 07/18/2022 06:35:31 -0.01, -75.26 -0.21, -74.43 95.01 80
8 07/18/2022 18:56:48 0.00, -75.27 -0.94, -79.58 491.37 80
9 07/20/2022 06:22:54 0.01, -75.29 -0.83, -71.36 447.59 80
10 07/20/2022 18:44:12 0.01, -75.30 -0.25, -76.52 139.03 80
11 07/22/2022 18:34:15 0.01, -75.34 0.39, -73.45 214.06 80
